Change the Weather History Date:

Saturday, October 5, 2013

  Actual Average Record
Temperature  
Mean Temperature 60 °F -  
Max Temperature 72 °F 70 °F 84 °F (2005)
Min Temperature 47 °F 51 °F 35 °F (2004)
Degree Days  
Heating Degree Days 5    
Growing Degree Days 10 (Base 50)    
Moisture  
Dew Point 60 °F    
Average Humidity 98    
Maximum Humidity 100    
Minimum Humidity 83    
Precipitation  
Precipitation 0.59 in - - ()
Sea Level Pressure  
Sea Level Pressure 29.96 in    
Wind  
Wind Speed 6 mph (SW)    
Max Wind Speed 16 mph    
Max Gust Speed 28 mph    
Visibility 9 miles    
Events Rain , Thunderstorm    
Averages and records for this station are not official NWS values.
T = Trace of Precipitation, MM = Missing Value Source: NWS Daily Summary

Daily Weather History Graph

Daily Weather History Graph

Search for Another Location

Airport or City:

Trip Planner

Search our weather history database for the weather conditions in past years. The results will help you decide how hot, cold, wet, or windy it might be!

Date:

Astronomy

Oct. 05, 2013 Rise Set
Actual Time 7:07 AM CDT 6:45 PM CDT
Civil Twilight 6:41 AM CDT 7:11 PM CDT
Nautical Twilight 6:11 AM CDT 7:41 PM CDT
Astronomical Twilight 5:40 AM CDT 8:12 PM CDT
Moon 7:46 AM CDT (10/5) 7:06 PM CDT (10/5)
Length of Visible Light 12h 29m
Length of Day
11h 37m
New Moon, 1% of the Moon is Illuminated
Oct 5
New Moon
Oct 11
First Quarter
Oct 18
Full
Oct 26
Last Quarter
Nov 3
New

Hourly Weather History & Observations

Time (CDT) Temp. Dew Point Humidity Pressure Visibility Wind Dir Wind Speed Gust Speed Precip Events Conditions
12:58 AM 72.1 °F 70.0 °F 93% 29.95 in 10.0 mi South 5.8 mph - N/A   Partly Cloudy
1:58 AM 71.8 °F 70.3 °F 95% 29.95 in 10.0 mi South 5.8 mph - N/A   Clear
2:58 AM 71.1 °F 70.3 °F 98% 29.92 in 10.0 mi South 10.4 mph - N/A   Clear
3:58 AM 70.5 °F 70.0 °F 98% 29.92 in 10.0 mi Variable 5.8 mph - N/A   Clear
4:58 AM 70.5 °F 70.5 °F 100% 29.91 in 10.0 mi South 5.8 mph - N/A   Clear
5:58 AM 71.1 °F 70.5 °F 98% 29.91 in 10.0 mi Variable 5.8 mph - N/A   Scattered Clouds
6:38 AM 69.8 °F 64.4 °F 83% 29.97 in 10.0 mi WNW 8.1 mph 27.6 mph N/A   Mostly Cloudy
6:39 AM 69.8 °F 64.4 °F 83% 29.96 in 10.0 mi WNW 8.1 mph 19.6 mph N/A   Light Drizzle
6:58 AM 67.3 °F 63.0 °F 86% 29.94 in 10.0 mi WNW 8.1 mph - 0.00 in Rain Light Rain
7:14 AM 64.4 °F 62.6 °F 94% 29.97 in 10.0 mi NW 6.9 mph - N/A   Mostly Cloudy
7:58 AM 64.9 °F 63.3 °F 94% 29.97 in 10.0 mi Variable 5.8 mph - 0.00 in   Mostly Cloudy
8:58 AM 65.3 °F 63.9 °F 95% 29.97 in 10.0 mi Calm Calm - N/A   Mostly Cloudy
9:05 AM 64.4 °F 62.6 °F 94% 29.98 in 10.0 mi ENE 1.2 mph - N/A   Light Drizzle
9:26 AM - - N/A% - - SW 1.2 mph - N/A   Unknown
9:27 AM 66.2 °F 64.4 °F 94% 30.00 in 10.0 mi West 1.2 mph - N/A   Light Drizzle
9:34 AM 64.4 °F 64.4 °F 100% 30.00 in 10.0 mi SW 2.3 mph - N/A   Overcast
9:38 AM 64.4 °F 64.4 °F 100% 30.00 in 10.0 mi West 2.3 mph - N/A   Light Drizzle
9:58 AM 64.8 °F 64.8 °F 100% 29.99 in 6.0 mi SSW 3.5 mph - 0.02 in Rain Rain
10:13 AM 64.4 °F 64.4 °F 100% 30.01 in 2.0 mi SSW 2.3 mph - N/A Rain Heavy Rain
10:18 AM 64.4 °F 64.4 °F 100% 30.01 in 1.8 mi SSE 5.8 mph - N/A Rain Heavy Rain
10:19 AM 64.4 °F 64.4 °F 100% 30.01 in 1.5 mi SSE 5.8 mph - N/A Rain , Thunderstorm Heavy Thunderstorms and Rain
10:24 AM 64.4 °F 64.4 °F 100% 30.01 in 2.0 mi SSE 5.8 mph - N/A Rain , Thunderstorm Thunderstorms and Rain
10:29 AM 64.4 °F 64.4 °F 100% 30.00 in 4.0 mi SSE 6.9 mph - N/A Rain , Thunderstorm Thunderstorms and Rain
10:34 AM 64.4 °F 64.4 °F 100% 30.00 in 5.0 mi SE 9.2 mph - N/A Rain , Thunderstorm Light Rain
10:58 AM 64.4 °F 64.4 °F 100% 29.98 in 4.0 mi SE 6.9 mph - 0.23 in Rain Rain
11:11 AM 64.4 °F 64.4 °F 100% 29.98 in 5.0 mi SE 6.9 mph - N/A Rain , Thunderstorm Light Thunderstorms and Rain
11:26 AM 64.4 °F 64.4 °F 100% 29.99 in 5.0 mi SE 10.4 mph - N/A Rain Light Rain
11:58 AM 64.9 °F 64.9 °F 100% 29.95 in 5.0 mi Variable 6.9 mph - 0.16 in Rain Light Rain
12:36 PM 66.2 °F 66.2 °F 100% 29.93 in 10.0 mi Variable 3.5 mph - N/A   Scattered Clouds
12:41 PM 66.2 °F 66.2 °F 100% 29.92 in 10.0 mi Variable 4.6 mph - N/A   Light Drizzle
12:58 PM 67.3 °F 67.3 °F 100% 29.88 in 10.0 mi Variable 4.6 mph - 0.05 in   Light Drizzle
1:02 PM 68.0 °F 68.0 °F 100% 29.89 in 10.0 mi Variable 5.8 mph - N/A   Mostly Cloudy
1:30 PM 68.0 °F 68.0 °F 100% 29.93 in 10.0 mi WSW 9.2 mph - N/A   Light Drizzle
1:35 PM 68.0 °F 68.0 °F 100% 29.93 in 10.0 mi Variable 5.8 mph - N/A Rain Light Rain
1:55 PM 62.6 °F 60.8 °F 94% 29.95 in 10.0 mi West 16.1 mph 26.5 mph N/A   Light Drizzle
1:56 PM 60.8 °F 60.8 °F 100% 29.95 in 10.0 mi WNW 15.0 mph 26.5 mph N/A   Overcast
1:58 PM 60.8 °F 60.8 °F 100% 29.93 in 10.0 mi WNW 12.7 mph 26.5 mph 0.01 in   Overcast
2:43 PM 55.4 °F 55.4 °F 100% 29.92 in 10.0 mi Calm Calm - N/A   Overcast
2:58 PM 56.5 °F 56.5 °F 100% 29.96 in 10.0 mi Variable 5.8 mph - N/A   Overcast
3:43 PM 53.6 °F 53.6 °F 100% 29.96 in 10.0 mi Variable 4.6 mph - N/A   Overcast
3:46 PM 53.6 °F 53.6 °F 100% 29.96 in 10.0 mi Variable 4.6 mph - N/A   Light Drizzle
3:55 PM 53.6 °F 53.6 °F 100% 29.96 in 10.0 mi Variable 4.6 mph - N/A   Overcast
3:58 PM 53.6 °F 53.6 °F 100% 29.96 in 10.0 mi Variable 2.3 mph - 0.00 in   Overcast
4:09 PM 53.6 °F 53.6 °F 100% 29.95 in 10.0 mi South 3.5 mph - N/A Rain Light Rain
4:36 PM 53.6 °F 53.6 °F 100% 29.96 in 10.0 mi Variable 3.5 mph - N/A   Overcast
4:51 PM 53.6 °F 53.6 °F 100% 29.95 in 10.0 mi Variable 1.2 mph - N/A   Overcast
4:55 PM 53.6 °F 53.6 °F 100% 29.95 in 10.0 mi Variable 1.2 mph - N/A Rain Light Rain
4:58 PM 54.0 °F 54.0 °F 100% 29.95 in 9.0 mi SW 2.3 mph - 0.00 in Rain Light Rain
5:13 PM 53.6 °F 53.6 °F 100% 29.96 in 2.5 mi West 4.6 mph - N/A Rain Rain
5:28 PM 53.6 °F 53.6 °F 100% 29.95 in 3.0 mi West 3.5 mph - N/A Rain Light Rain
5:43 PM 53.6 °F 53.6 °F 100% 29.95 in 10.0 mi Variable 2.3 mph - N/A Rain Light Rain
5:58 PM 53.6 °F 53.6 °F 100% 29.96 in 10.0 mi Variable 3.5 mph - 0.09 in Rain Light Rain
6:03 PM 53.6 °F 53.6 °F 100% 29.95 in 10.0 mi Variable 3.5 mph - N/A Rain Light Rain
6:18 PM 53.6 °F 53.6 °F 100% 29.94 in 10.0 mi Variable 1.2 mph - N/A   Light Drizzle
6:58 PM 52.0 °F 52.0 °F 100% 29.96 in 10.0 mi Variable 4.6 mph - 0.03 in   Light Drizzle
6:59 PM 51.8 °F 51.8 °F 100% 29.96 in 10.0 mi Variable 4.6 mph - N/A   Overcast
7:58 PM 50.4 °F 50.4 °F 100% 29.97 in 10.0 mi Variable 5.8 mph - 0.00 in   Partly Cloudy
8:58 PM 49.1 °F 49.1 °F 100% 29.97 in 10.0 mi SW 6.9 mph - N/A   Mostly Cloudy
9:58 PM 48.7 °F 48.7 °F 100% 29.97 in 10.0 mi WSW 5.8 mph - N/A   Clear
10:58 PM 48.6 °F 48.6 °F 100% 29.97 in 10.0 mi Variable 4.6 mph - N/A   Partly Cloudy
11:58 PM 47.5 °F 47.5 °F 100% 29.95 in 10.0 mi SW 4.6 mph - N/A   Clear